When you browse on this site, cookies collect data to enhance your experience and personalize the content and advertising you see.
Visit our Privacy Policy to learn more. By continuing to use the site, you agree to this use of cookies and data.
  • In Sweden
  • List of Countries
  • For 7 days
  • Water Temperature
  • Satellite Maps
  • Weather Map
  • Weather Widgets
  • user-avatar
    Login

    Hourly Weather Uspenka

    Today, 19 June, Wednesday

    Time Temperature Precipitation Wind Pressure Humidity
    00:00 +11°C° 0 mm 3 mps 745 mmHg 72%
    01:00 +11°C° 0 mm 3 mps 745 mmHg 73%
    02:00 +10°C° 0 mm 3 mps 745 mmHg 73%
    03:00 +11°C° 0 mm 3 mps 746 mmHg 75%
    04:00 +11°C° 0 mm 3 mps 746 mmHg 77%
    05:00 +11°C° 0 mm 3 mps 746 mmHg 78%
    06:00 +12°C° 0 mm 3 mps 747 mmHg 75%
    07:00 +13°C° 0 mm 4 mps 747 mmHg 71%
    08:00 +14°C° 0 mm 4 mps 747 mmHg 67%
    09:00 +15°C° 0 mm 4 mps 747 mmHg 63%
    10:00 +17°C° 0 mm 4 mps 747 mmHg 60%
    11:00 +18°C° 0 mm 4 mps 747 mmHg 56%
    12:00 +19°C° 0.1 mm 4 mps 747 mmHg 53%
    13:00 +20°C° 0.1 mm 3 mps 747 mmHg 50%
    14:00 +21°C° 0.1 mm 3 mps 746 mmHg 48%
    15:00 +21°C° 0 mm 3 mps 747 mmHg 47%
    16:00 +21°C° 0 mm 3 mps 747 mmHg 46%
    17:00 +21°C° 0 mm 3 mps 747 mmHg 45%
    18:00 +20°C° 0 mm 2 mps 747 mmHg 51%
    19:00 +19°C° 0 mm 2 mps 747 mmHg 57%
    20:00 +17°C° 0 mm 2 mps 748 mmHg 63%
    21:00 +17°C° 0 mm 2 mps 748 mmHg 66%
    22:00 +16°C° 0 mm 2 mps 748 mmHg 69%
    23:00 +15°C° 0 mm 2 mps 749 mmHg 72%

    Tomorrow, 20 June, Thursday

    Time Temperature Precipitation Wind Pressure Humidity
    00:00 +15°C° 0 mm 2 mps 749 mmHg 74%
    01:00 +14°C° 0 mm 2 mps 749 mmHg 77%
    02:00 +14°C° 0 mm 2 mps 749 mmHg 80%
    03:00 +14°C° 0 mm 2 mps 750 mmHg 80%
    04:00 +14°C° 0 mm 2 mps 750 mmHg 81%
    05:00 +14°C° 0 mm 2 mps 751 mmHg 82%
    06:00 +15°C° 0 mm 2 mps 751 mmHg 75%
    07:00 +17°C° 0 mm 2 mps 751 mmHg 68%
    08:00 +19°C° 0 mm 2 mps 751 mmHg 61%
    09:00 +20°C° 0 mm 2 mps 751 mmHg 56%
    10:00 +20°C° 0 mm 2 mps 751 mmHg 50%
    11:00 +21°C° 0 mm 2 mps 752 mmHg 45%
    12:00 +23°C° 0 mm 2 mps 751 mmHg 42%
    13:00 +24°C° 0 mm 2 mps 751 mmHg 39%
    14:00 +24°C° 0 mm 2 mps 751 mmHg 36%
    15:00 +24°C° 0 mm 2 mps 751 mmHg 36%
    16:00 +25°C° 0 mm 2 mps 751 mmHg 37%
    17:00 +25°C° 0 mm 2 mps 751 mmHg 37%
    18:00 +23°C° 0 mm 2 mps 751 mmHg 43%
    19:00 +21°C° 0 mm 2 mps 751 mmHg 50%
    20:00 +21°C° 0 mm 1 mps 751 mmHg 56%
    21:00 +20°C° 0 mm 1 mps 751 mmHg 58%
    22:00 +19°C° 0 mm 1 mps 751 mmHg 60%
    23:00 +18°C° 0 mm 1 mps 751 mmHg 62%

    Day after tomorrow, 21 June, Friday

    Time Temperature Precipitation Wind Pressure Humidity
    00:00 +18°C° 0 mm 1 mps 751 mmHg 64%
    01:00 +16°C° 0 mm 1 mps 751 mmHg 65%
    02:00 +16°C° 0 mm 1 mps 751 mmHg 67%
    03:00 +16°C° 0 mm 1 mps 751 mmHg 67%
    04:00 +18°C° 0 mm 1 mps 751 mmHg 67%
    05:00 +18°C° 0 mm 1 mps 751 mmHg 66%
    06:00 +20°C° 0 mm 1 mps 751 mmHg 60%
    07:00 +21°C° 0 mm 1 mps 751 mmHg 54%
    08:00 +23°C° 0 mm 1 mps 751 mmHg 48%
    09:00 +24°C° 0 mm 2 mps 751 mmHg 44%
    10:00 +25°C° 0 mm 2 mps 751 mmHg 41%
    11:00 +26°C° 0 mm 2 mps 751 mmHg 38%
    12:00 +26°C° 0 mm 2 mps 750 mmHg 36%
    13:00 +27°C° 0 mm 2 mps 750 mmHg 34%
    14:00 +28°C° 0 mm 2 mps 749 mmHg 32%
    15:00 +28°C° 0 mm 2 mps 749 mmHg 31%
    16:00 +28°C° 0 mm 1 mps 748 mmHg 31%
    17:00 +28°C° 0 mm 1 mps 748 mmHg 30%
    18:00 +26°C° 0 mm 1 mps 748 mmHg 35%
    19:00 +25°C° 0 mm 1 mps 748 mmHg 40%
    20:00 +23°C° 0 mm 2 mps 748 mmHg 45%
    21:00 +21°C° 0 mm 2 mps 747 mmHg 47%
    22:00 +21°C° 0 mm 2 mps 747 mmHg 50%
    23:00 +20°C° 0 mm 2 mps 747 mmHg 52%

    22 June, Saturday

    Time Temperature Precipitation Wind Pressure Humidity
    00:00 +19°C° 0 mm 2 mps 746 mmHg 53%
    01:00 +19°C° 0 mm 3 mps 746 mmHg 55%
    02:00 +18°C° 0 mm 3 mps 746 mmHg 56%
    03:00 +18°C° 0 mm 3 mps 745 mmHg 58%
    04:00 +19°C° 0 mm 3 mps 745 mmHg 60%
    05:00 +19°C° 0 mm 3 mps 745 mmHg 61%
    06:00 +21°C° 0 mm 2 mps 746 mmHg 54%
    07:00 +24°C° 0 mm 2 mps 746 mmHg 49%
    08:00 +25°C° 0 mm 3 mps 746 mmHg 45%
    09:00 +26°C° 0.2 mm 4 mps 745 mmHg 45%
    10:00 +26°C° 0.2 mm 4 mps 745 mmHg 45%
    11:00 +27°C° 0.2 mm 5 mps 745 mmHg 45%
    12:00 +27°C° 0.8 mm 5 mps 745 mmHg 46%
    13:00 +27°C° 0.8 mm 5 mps 745 mmHg 47%
    14:00 +26°C° 0.8 mm 6 mps 745 mmHg 48%
    15:00 +26°C° 0 mm 6 mps 746 mmHg 46%
    16:00 +24°C° 0 mm 6 mps 746 mmHg 44%
    17:00 +23°C° 0 mm 7 mps 746 mmHg 42%
    18:00 +22°C° 0 mm 7 mps 746 mmHg 49%
    19:00 +20°C° 0 mm 7 mps 747 mmHg 56%
    20:00 +19°C° 0 mm 6 mps 747 mmHg 63%
    21:00 +16°C° 0 mm 6 mps 748 mmHg 68%
    22:00 +15°C° 0 mm 6 mps 748 mmHg 73%
    23:00 +14°C° 0 mm 6 mps 749 mmHg 78%

    23 June, Sunday

    Time Temperature Precipitation Wind Pressure Humidity
    00:00 +13°C° 0 mm 6 mps 749 mmHg 79%
    01:00 +13°C° 0 mm 6 mps 749 mmHg 80%
    02:00 +11°C° 0 mm 6 mps 749 mmHg 81%
    03:00 +11°C° 0 mm 6 mps 749 mmHg 79%
    04:00 +11°C° 0 mm 6 mps 749 mmHg 78%
    05:00 +10°C° 0 mm 6 mps 750 mmHg 76%
    06:00 +11°C° 0 mm 6 mps 750 mmHg 68%
    07:00 +13°C° 0 mm 6 mps 750 mmHg 61%
    08:00 +14°C° 0 mm 7 mps 750 mmHg 53%
    09:00 +15°C° 0.1 mm 7 mps 750 mmHg 49%
    10:00 +16°C° 0.1 mm 7 mps 750 mmHg 46%
    11:00 +17°C° 0.1 mm 7 mps 750 mmHg 42%
    12:00 +17°C° 0.3 mm 7 mps 751 mmHg 44%
    13:00 +17°C° 0.3 mm 8 mps 751 mmHg 46%
    14:00 +17°C° 0.3 mm 8 mps 751 mmHg 48%
    15:00 +17°C° 0.1 mm 7 mps 751 mmHg 48%
    16:00 +17°C° 0.1 mm 6 mps 751 mmHg 48%
    17:00 +17°C° 0.1 mm 5 mps 751 mmHg 47%
    18:00 +17°C° 0 mm 4 mps 751 mmHg 53%
    19:00 +16°C° 0 mm 3 mps 751 mmHg 58%
    20:00 +15°C° 0 mm 1 mps 752 mmHg 63%
    21:00 +14°C° 0 mm 1 mps 752 mmHg 66%
    22:00 +14°C° 0 mm 1 mps 752 mmHg 68%
    23:00 +13°C° 0 mm 1 mps 752 mmHg 71%

    24 June, Monday

    Time Temperature Precipitation Wind Pressure Humidity
    00:00 +13°C° 0 mm 1 mps 752 mmHg 72%
    01:00 +12°C° 0 mm 2 mps 751 mmHg 73%
    02:00 +12°C° 0 mm 2 mps 751 mmHg 74%
    03:00 +12°C° 0 mm 2 mps 751 mmHg 73%
    04:00 +13°C° 0 mm 2 mps 751 mmHg 71%
    05:00 +13°C° 0 mm 2 mps 752 mmHg 69%
    06:00 +15°C° 0 mm 2 mps 751 mmHg 62%
    07:00 +16°C° 0 mm 2 mps 751 mmHg 54%
    08:00 +18°C° 0 mm 2 mps 751 mmHg 46%
    09:00 +19°C° 0 mm 2 mps 751 mmHg 43%
    10:00 +20°C° 0 mm 2 mps 751 mmHg 40%
    11:00 +21°C° 0 mm 2 mps 751 mmHg 37%
    12:00 +23°C° 0 mm 2 mps 750 mmHg 35%
    13:00 +24°C° 0 mm 3 mps 750 mmHg 33%
    14:00 +24°C° 0 mm 3 mps 749 mmHg 31%
    15:00 +25°C° 0 mm 2 mps 749 mmHg 31%
    16:00 +25°C° 0 mm 2 mps 749 mmHg 32%
    17:00 +25°C° 0 mm 2 mps 749 mmHg 32%
    18:00 +24°C° 0 mm 2 mps 749 mmHg 38%
    19:00 +22°C° 0 mm 1 mps 749 mmHg 44%
    20:00 +21°C° 0 mm 1 mps 748 mmHg 50%
    21:00 +20°C° 0 mm 1 mps 748 mmHg 50%
    22:00 +19°C° 0 mm 1 mps 749 mmHg 51%
    23:00 +19°C° 0 mm 1 mps 749 mmHg 51%
    Show more